• In Moldova, Republic
  • List of Countries
  • For 7 days
  • Water Temperature
  • Satellite Maps
  • Weather Map
  • Weather Widgets
  • user-avatar
    Login

    Hourly Weather Salzburg

    Today, 30 May, Tuesday

    Time Temperature Precipitation Wind Pressure Humidity
    00:00 +9°C° 0.1 mm 1 mps 626 mmHg 85%
    01:00 +8°C° 0 mm 1 mps 626 mmHg 82%
    02:00 +8°C° 0 mm 1 mps 626 mmHg 81%
    03:00 +8°C° 0 mm 1 mps 626 mmHg 80%
    04:00 +8°C° 0 mm 1 mps 625 mmHg 78%
    05:00 +10°C° 0 mm 1 mps 627 mmHg 75%
    06:00 +13°C° 0 mm 1 mps 628 mmHg 72%
    07:00 +15°C° 0 mm 1 mps 629 mmHg 69%
    08:00 +18°C° 0 mm 1 mps 629 mmHg 64%
    09:00 +19°C° 0 mm 1 mps 630 mmHg 59%
    10:00 +20°C° 0 mm 1 mps 630 mmHg 55%
    11:00 +21°C° 0.4 mm 1 mps 630 mmHg 58%
    12:00 +21°C° 0.4 mm 1 mps 630 mmHg 62%
    13:00 +21°C° 0.4 mm 1 mps 630 mmHg 65%
    14:00 +21°C° 1.3 mm 1 mps 630 mmHg 68%
    15:00 +20°C° 1.3 mm 1 mps 630 mmHg 71%
    16:00 +20°C° 1.3 mm 1 mps 629 mmHg 74%
    17:00 +18°C° 1.1 mm 1 mps 629 mmHg 80%
    18:00 +16°C° 1.1 mm 1 mps 629 mmHg 86%
    19:00 +14°C° 1.1 mm 1 mps 628 mmHg 93%
    20:00 +13°C° 1.1 mm 1 mps 628 mmHg 94%
    21:00 +12°C° 1.1 mm 1 mps 628 mmHg 96%
    22:00 +11°C° 1.1 mm 1 mps 629 mmHg 97%
    23:00 +11°C° 0.6 mm 1 mps 629 mmHg 97%

    Tomorrow, 31 May, Wednesday

    Time Temperature Precipitation Wind Pressure Humidity
    00:00 +11°C° 0.6 mm 1 mps 629 mmHg 97%
    01:00 +11°C° 0.6 mm 1 mps 629 mmHg 97%
    02:00 +10°C° 0.1 mm 1 mps 629 mmHg 97%
    03:00 +10°C° 0.1 mm 1 mps 628 mmHg 97%
    04:00 +9°C° 0.1 mm 1 mps 628 mmHg 97%
    05:00 +10°C° 0 mm 1 mps 629 mmHg 95%
    06:00 +11°C° 0 mm 1 mps 630 mmHg 93%
    07:00 +13°C° 0 mm 1 mps 630 mmHg 92%
    08:00 +14°C° 0.2 mm 1 mps 631 mmHg 88%
    09:00 +15°C° 0.2 mm 1 mps 631 mmHg 84%
    10:00 +16°C° 0.2 mm 1 mps 631 mmHg 80%
    11:00 +16°C° 0.9 mm 1 mps 631 mmHg 80%
    12:00 +18°C° 0.9 mm 1 mps 631 mmHg 79%
    13:00 +18°C° 0.9 mm 1 mps 631 mmHg 78%
    14:00 +18°C° 1.1 mm 1 mps 631 mmHg 80%
    15:00 +18°C° 1.1 mm 1 mps 631 mmHg 81%
    16:00 +16°C° 1.1 mm 1 mps 631 mmHg 82%
    17:00 +15°C° 0.8 mm 1 mps 630 mmHg 86%
    18:00 +14°C° 0.8 mm 1 mps 630 mmHg 90%
    19:00 +13°C° 0.8 mm 1 mps 630 mmHg 94%
    20:00 +12°C° 0.7 mm 1 mps 630 mmHg 95%
    21:00 +11°C° 0.7 mm 1 mps 629 mmHg 96%
    22:00 +10°C° 0.7 mm 1 mps 629 mmHg 97%
    23:00 +10°C° 0.2 mm 1 mps 629 mmHg 98%

    Day after tomorrow, 1 June, Thursday

    Time Temperature Precipitation Wind Pressure Humidity
    00:00 +10°C° 0.2 mm 1 mps 629 mmHg 98%
    01:00 +9°C° 0.2 mm 1 mps 629 mmHg 98%
    02:00 +9°C° 0 mm 1 mps 629 mmHg 98%
    03:00 +9°C° 0 mm 1 mps 629 mmHg 98%
    04:00 +9°C° 0 mm 1 mps 629 mmHg 98%
    05:00 +10°C° 0.1 mm 1 mps 629 mmHg 96%
    06:00 +11°C° 0.1 mm 1 mps 630 mmHg 95%
    07:00 +12°C° 0.1 mm 1 mps 630 mmHg 93%
    08:00 +13°C° 0.2 mm 1 mps 631 mmHg 90%
    09:00 +13°C° 0.2 mm 1 mps 631 mmHg 86%
    10:00 +14°C° 0.2 mm 1 mps 631 mmHg 83%
    11:00 +15°C° 0.5 mm 1 mps 631 mmHg 81%
    12:00 +15°C° 0.5 mm 1 mps 631 mmHg 80%
    13:00 +16°C° 0.5 mm 1 mps 632 mmHg 78%
    14:00 +16°C° 0.9 mm 1 mps 631 mmHg 78%
    15:00 +16°C° 0.9 mm 1 mps 631 mmHg 79%
    16:00 +16°C° 0.9 mm 1 mps 631 mmHg 79%
    17:00 +15°C° 0.7 mm 1 mps 631 mmHg 83%
    18:00 +14°C° 0.7 mm 1 mps 630 mmHg 87%
    19:00 +13°C° 0.7 mm 1 mps 630 mmHg 91%
    20:00 +12°C° 0.5 mm 1 mps 630 mmHg 93%
    21:00 +10°C° 0.5 mm 1 mps 629 mmHg 95%
    22:00 +9°C° 0.5 mm 1 mps 629 mmHg 96%
    23:00 +9°C° 0.5 mm 1 mps 629 mmHg 96%

    2 June, Friday

    Time Temperature Precipitation Wind Pressure Humidity
    00:00 +9°C° 0.5 mm 1 mps 629 mmHg 96%
    01:00 +9°C° 0.5 mm 1 mps 629 mmHg 97%
    02:00 +9°C° 0 mm 1 mps 629 mmHg 96%
    03:00 +8°C° 0 mm 1 mps 628 mmHg 96%
    04:00 +8°C° 0 mm 1 mps 628 mmHg 96%
    05:00 +10°C° 0.6 mm 1 mps 629 mmHg 94%
    06:00 +11°C° 0.6 mm 1 mps 629 mmHg 91%
    07:00 +12°C° 0.6 mm 1 mps 630 mmHg 88%
    08:00 +14°C° 0.3 mm 1 mps 630 mmHg 82%
    09:00 +15°C° 0.3 mm 1 mps 631 mmHg 76%
    10:00 +18°C° 0.3 mm 1 mps 631 mmHg 70%
    11:00 +18°C° 0.9 mm 1 mps 631 mmHg 71%
    12:00 +18°C° 0.9 mm 1 mps 631 mmHg 71%
    13:00 +18°C° 0.9 mm 2 mps 631 mmHg 71%
    14:00 +18°C° 0.9 mm 1 mps 630 mmHg 74%
    15:00 +18°C° 0.9 mm 1 mps 630 mmHg 76%
    16:00 +18°C° 0.9 mm 1 mps 630 mmHg 78%
    17:00 +16°C° 0.7 mm 1 mps 629 mmHg 83%
    18:00 +15°C° 0.7 mm 1 mps 629 mmHg 88%
    19:00 +13°C° 0.7 mm 0 mps 629 mmHg 93%
    20:00 +12°C° 0.4 mm 1 mps 628 mmHg 94%
    21:00 +11°C° 0.4 mm 1 mps 628 mmHg 94%
    22:00 +9°C° 0.4 mm 1 mps 627 mmHg 95%
    23:00 +9°C° 0.2 mm 1 mps 627 mmHg 95%

    3 June, Saturday

    Time Temperature Precipitation Wind Pressure Humidity
    00:00 +8°C° 0.2 mm 1 mps 627 mmHg 94%
    01:00 +8°C° 0.2 mm 1 mps 626 mmHg 94%
    02:00 +8°C° 0.1 mm 1 mps 626 mmHg 94%
    03:00 +8°C° 0.1 mm 1 mps 626 mmHg 93%
    04:00 +8°C° 0.1 mm 1 mps 626 mmHg 93%
    05:00 +10°C° 0 mm 1 mps 627 mmHg 90%
    06:00 +11°C° 0 mm 1 mps 628 mmHg 88%
    07:00 +13°C° 0 mm 1 mps 628 mmHg 85%
    08:00 +15°C° 0.2 mm 1 mps 629 mmHg 78%
    09:00 +18°C° 0.2 mm 1 mps 629 mmHg 71%
    10:00 +19°C° 0.2 mm 1 mps 630 mmHg 63%
    11:00 +19°C° 0.6 mm 1 mps 630 mmHg 65%
    12:00 +19°C° 0.6 mm 1 mps 629 mmHg 66%
    13:00 +19°C° 0.6 mm 1 mps 629 mmHg 68%
    14:00 +19°C° 0.7 mm 1 mps 629 mmHg 69%
    15:00 +19°C° 0.7 mm 1 mps 629 mmHg 70%
    16:00 +19°C° 0.7 mm 1 mps 629 mmHg 72%
    17:00 +18°C° 0.7 mm 1 mps 628 mmHg 77%
    18:00 +16°C° 0.7 mm 1 mps 628 mmHg 83%
    19:00 +15°C° 0.7 mm 1 mps 628 mmHg 88%
    20:00 +13°C° 0.2 mm 1 mps 627 mmHg 90%
    21:00 +12°C° 0.2 mm 1 mps 627 mmHg 92%
    22:00 +10°C° 0.2 mm 1 mps 626 mmHg 93%
    23:00 +10°C° 0 mm 1 mps 626 mmHg 93%

    4 June, Sunday

    Time Temperature Precipitation Wind Pressure Humidity
    00:00 +9°C° 0 mm 2 mps 626 mmHg 93%
    01:00 +9°C° 0 mm 2 mps 626 mmHg 93%
    02:00 +9°C° 0 mm 2 mps 626 mmHg 93%
    03:00 +8°C° 0 mm 2 mps 626 mmHg 93%
    04:00 +8°C° 0 mm 2 mps 625 mmHg 93%
    05:00 +11°C° 0 mm 1 mps 626 mmHg 90%
    06:00 +13°C° 0 mm 1 mps 627 mmHg 87%
    07:00 +14°C° 0 mm 1 mps 627 mmHg 84%
    08:00 +16°C° 0.1 mm 1 mps 628 mmHg 77%
    09:00 +19°C° 0.1 mm 1 mps 628 mmHg 69%
    10:00 +21°C° 0.1 mm 1 mps 629 mmHg 61%
    11:00 +21°C° 0.5 mm 1 mps 629 mmHg 62%
    12:00 +20°C° 0.5 mm 2 mps 628 mmHg 64%
    13:00 +20°C° 0.5 mm 2 mps 628 mmHg 65%
    14:00 +20°C° 0.7 mm 2 mps 628 mmHg 65%
    15:00 +20°C° 0.7 mm 2 mps 628 mmHg 66%
    16:00 +20°C° 0.7 mm 2 mps 627 mmHg 67%
    17:00 +20°C° 0.8 mm 1 mps 627 mmHg 74%
    18:00 +18°C° 0.8 mm 1 mps 626 mmHg 81%
    19:00 +16°C° 0.8 mm 1 mps 626 mmHg 88%
    20:00 +15°C° 1 mm 1 mps 625 mmHg 90%
    21:00 +13°C° 1 mm 1 mps 625 mmHg 92%
    22:00 +12°C° 1 mm 2 mps 625 mmHg 95%
    23:00 +10°C° 0.3 mm 2 mps 625 mmHg 95%
    Show more